When you browse on this site, cookies collect data to enhance your experience and personalize the content and advertising you see.
Visit our Privacy Policy to learn more. By continuing to use the site, you agree to this use of cookies and data.
EN

Hourly Weather Djelfa

Today, 15 July, Wednesday

Time Temperature Precipitation Wind Pressure Humidity
00:00 +25°C° 0 mm 1 mps 664 mmHg 39%
01:00 +25°C° 0 mm 1 mps 664 mmHg 42%
02:00 +24°C° 0 mm 2 mps 664 mmHg 45%
03:00 +23°C° 0 mm 2 mps 664 mmHg 47%
04:00 +24°C° 0 mm 2 mps 664 mmHg 47%
05:00 +24°C° 0 mm 2 mps 664 mmHg 46%
06:00 +24°C° 0 mm 1 mps 665 mmHg 46%
07:00 +26°C° 0 mm 2 mps 665 mmHg 40%
08:00 +28°C° 0 mm 2 mps 666 mmHg 34%
09:00 +30°C° 0 mm 2 mps 667 mmHg 28%
10:00 +31°C° 0 mm 3 mps 667 mmHg 25%
11:00 +34°C° 0 mm 4 mps 667 mmHg 22%
12:00 +35°C° 0 mm 5 mps 667 mmHg 18%
13:00 +36°C° 0 mm 5 mps 667 mmHg 18%
14:00 +36°C° 0 mm 6 mps 667 mmHg 17%
15:00 +36°C° 0 mm 6 mps 666 mmHg 16%
16:00 +35°C° 0 mm 7 mps 666 mmHg 19%
17:00 +33°C° 0 mm 7 mps 666 mmHg 23%
18:00 +31°C° 0 mm 8 mps 666 mmHg 26%
19:00 +30°C° 0 mm 6 mps 666 mmHg 28%
20:00 +29°C° 0 mm 3 mps 666 mmHg 30%
21:00 +28°C° 0 mm 1 mps 666 mmHg 32%
22:00 +27°C° 0 mm 1 mps 666 mmHg 35%
23:00 +26°C° 0 mm 2 mps 666 mmHg 37%

Tomorrow, 16 July, Thursday

Time Temperature Precipitation Wind Pressure Humidity
00:00 +26°C° 0 mm 2 mps 666 mmHg 40%
01:00 +25°C° 0 mm 2 mps 665 mmHg 41%
02:00 +25°C° 0 mm 1 mps 665 mmHg 43%
03:00 +24°C° 0 mm 1 mps 665 mmHg 45%
04:00 +23°C° 0 mm 0 mps 666 mmHg 42%
05:00 +24°C° 0 mm 0 mps 666 mmHg 39%
06:00 +25°C° 0 mm 0 mps 666 mmHg 36%
07:00 +28°C° 0 mm 1 mps 667 mmHg 31%
08:00 +30°C° 0 mm 2 mps 668 mmHg 27%
09:00 +33°C° 0 mm 3 mps 668 mmHg 22%
10:00 +34°C° 0 mm 4 mps 668 mmHg 20%
11:00 +36°C° 0 mm 5 mps 668 mmHg 19%
12:00 +38°C° 0 mm 6 mps 668 mmHg 17%
13:00 +38°C° 0 mm 6 mps 668 mmHg 16%
14:00 +39°C° 0 mm 6 mps 667 mmHg 16%
15:00 +39°C° 0 mm 7 mps 667 mmHg 15%
16:00 +39°C° 0 mm 6 mps 667 mmHg 16%
17:00 +37°C° 0 mm 5 mps 667 mmHg 16%
18:00 +37°C° 0 mm 4 mps 667 mmHg 17%
19:00 +34°C° 0 mm 4 mps 666 mmHg 23%
20:00 +32°C° 0 mm 5 mps 666 mmHg 30%
21:00 +28°C° 0 mm 5 mps 666 mmHg 36%
22:00 +28°C° 0 mm 4 mps 666 mmHg 36%
23:00 +27°C° 0 mm 3 mps 666 mmHg 37%

Day after tomorrow, 17 July, Friday

Time Temperature Precipitation Wind Pressure Humidity
00:00 +26°C° 0 mm 2 mps 666 mmHg 37%
01:00 +26°C° 0 mm 2 mps 665 mmHg 37%
02:00 +25°C° 0 mm 2 mps 665 mmHg 37%
03:00 +25°C° 0 mm 2 mps 665 mmHg 37%
04:00 +25°C° 0 mm 2 mps 665 mmHg 36%
05:00 +25°C° 0 mm 2 mps 665 mmHg 35%
06:00 +25°C° 0 mm 2 mps 666 mmHg 34%
07:00 +27°C° 0 mm 2 mps 666 mmHg 30%
08:00 +29°C° 0 mm 2 mps 666 mmHg 27%
09:00 +30°C° 0 mm 2 mps 667 mmHg 23%
10:00 +31°C° 0 mm 3 mps 667 mmHg 21%
11:00 +34°C° 0 mm 4 mps 667 mmHg 19%
12:00 +35°C° 0 mm 5 mps 667 mmHg 17%
13:00 +36°C° 0 mm 5 mps 667 mmHg 17%
14:00 +36°C° 0 mm 6 mps 666 mmHg 16%
15:00 +38°C° 0 mm 7 mps 666 mmHg 15%
16:00 +36°C° 0 mm 6 mps 666 mmHg 16%
17:00 +35°C° 0 mm 6 mps 666 mmHg 16%
18:00 +35°C° 0 mm 5 mps 665 mmHg 17%
19:00 +33°C° 0 mm 5 mps 665 mmHg 20%
20:00 +30°C° 0 mm 5 mps 665 mmHg 24%
21:00 +28°C° 0 mm 5 mps 666 mmHg 27%
22:00 +28°C° 0 mm 4 mps 665 mmHg 28%
23:00 +27°C° 0 mm 3 mps 665 mmHg 30%

18 July, Saturday

Time Temperature Precipitation Wind Pressure Humidity
00:00 +26°C° 0 mm 2 mps 665 mmHg 31%
01:00 +25°C° 0 mm 2 mps 665 mmHg 32%
02:00 +25°C° 0 mm 2 mps 665 mmHg 33%
03:00 +24°C° 0 mm 2 mps 665 mmHg 34%
04:00 +24°C° 0 mm 2 mps 665 mmHg 34%
05:00 +25°C° 0 mm 2 mps 665 mmHg 35%
06:00 +25°C° 0 mm 2 mps 665 mmHg 35%
07:00 +26°C° 0 mm 2 mps 666 mmHg 31%
08:00 +28°C° 0 mm 3 mps 666 mmHg 28%
09:00 +30°C° 0 mm 3 mps 667 mmHg 24%
10:00 +32°C° 0 mm 4 mps 667 mmHg 23%
11:00 +33°C° 0 mm 4 mps 667 mmHg 21%
12:00 +34°C° 0 mm 5 mps 667 mmHg 20%
13:00 +35°C° 0 mm 5 mps 667 mmHg 19%
14:00 +35°C° 0 mm 5 mps 666 mmHg 18%
15:00 +35°C° 0 mm 5 mps 666 mmHg 17%
16:00 +35°C° 0 mm 4 mps 666 mmHg 18%
17:00 +34°C° 0 mm 4 mps 666 mmHg 18%
18:00 +34°C° 0 mm 3 mps 666 mmHg 19%
19:00 +32°C° 0 mm 4 mps 666 mmHg 22%
20:00 +29°C° 0 mm 5 mps 666 mmHg 26%
21:00 +28°C° 0 mm 5 mps 666 mmHg 29%
22:00 +27°C° 0 mm 4 mps 666 mmHg 30%
23:00 +26°C° 0 mm 3 mps 666 mmHg 31%

19 July, Sunday

Time Temperature Precipitation Wind Pressure Humidity
00:00 +26°C° 0 mm 2 mps 666 mmHg 32%
01:00 +25°C° 0 mm 1 mps 666 mmHg 34%
02:00 +24°C° 0 mm 1 mps 665 mmHg 36%
03:00 +22°C° 0 mm 0 mps 665 mmHg 38%
04:00 +24°C° 0 mm 1 mps 665 mmHg 36%
05:00 +25°C° 0 mm 1 mps 666 mmHg 35%
06:00 +26°C° 0 mm 1 mps 666 mmHg 33%
07:00 +27°C° 0 mm 1 mps 667 mmHg 31%
08:00 +29°C° 0 mm 2 mps 667 mmHg 29%
09:00 +30°C° 0 mm 2 mps 668 mmHg 27%
10:00 +31°C° 0 mm 3 mps 668 mmHg 25%
11:00 +33°C° 0 mm 4 mps 668 mmHg 22%
12:00 +34°C° 0 mm 5 mps 668 mmHg 19%
13:00 +35°C° 0 mm 5 mps 668 mmHg 17%
14:00 +35°C° 0 mm 5 mps 668 mmHg 14%
15:00 +36°C° 0 mm 4 mps 667 mmHg 12%
16:00 +35°C° 0 mm 5 mps 667 mmHg 12%
17:00 +35°C° 0 mm 5 mps 667 mmHg 11%
18:00 +34°C° 0 mm 5 mps 667 mmHg 11%
19:00 +33°C° 0 mm 5 mps 667 mmHg 12%
20:00 +30°C° 0 mm 4 mps 667 mmHg 14%
21:00 +28°C° 0 mm 3 mps 667 mmHg 16%
22:00 +27°C° 0 mm 3 mps 667 mmHg 23%
23:00 +26°C° 0 mm 2 mps 667 mmHg 30%

20 July, Monday

Time Temperature Precipitation Wind Pressure Humidity
00:00 +25°C° 0 mm 2 mps 666 mmHg 37%
01:00 +25°C° 0 mm 2 mps 666 mmHg 40%
02:00 +25°C° 0 mm 2 mps 666 mmHg 42%
03:00 +24°C° 0 mm 2 mps 666 mmHg 45%
04:00 +25°C° 0 mm 2 mps 666 mmHg 44%
05:00 +25°C° 0 mm 2 mps 667 mmHg 44%
06:00 +26°C° 0 mm 2 mps 667 mmHg 43%
07:00 +28°C° 0 mm 3 mps 668 mmHg 38%
08:00 +29°C° 0 mm 3 mps 668 mmHg 33%
09:00 +32°C° 0 mm 4 mps 669 mmHg 28%
10:00 +33°C° 0 mm 4 mps 669 mmHg 25%
11:00 +34°C° 0 mm 4 mps 669 mmHg 23%
12:00 +35°C° 0 mm 4 mps 669 mmHg 20%
13:00 +36°C° 0 mm 4 mps 668 mmHg 19%
14:00 +36°C° 0 mm 4 mps 668 mmHg 17%
15:00 +37°C° 0 mm 3 mps 668 mmHg 16%
16:00 +37°C° 0 mm 3 mps 668 mmHg 16%
17:00 +36°C° 0 mm 4 mps 668 mmHg 15%
18:00 +36°C° 0 mm 4 mps 668 mmHg 15%
19:00 +34°C° 0 mm 5 mps 668 mmHg 19%
20:00 +33°C° 0 mm 6 mps 667 mmHg 22%
21:00 +30°C° 0 mm 7 mps 667 mmHg 26%
22:00 +29°C° 0 mm 7 mps 667 mmHg 27%
23:00 +29°C° 0 mm 7 mps 667 mmHg 28%
Show more